TimeMST,TemperatureF,Dew PointF,Humidity,Sea Level PressureIn,VisibilityMPH,Wind Direction,Wind SpeedMPH,Gust SpeedMPH,PrecipitationIn,Events,Conditions,WindDirDegrees,DateUTC
12:56 AM,25.0,14.0,63,29.81,10.0,Calm,Calm,-,N/A,,Mostly Cloudy,0,2012-12-24 07:56:00
1:56 AM,23.0,15.1,72,29.81,10.0,West,5.8,-,N/A,,Overcast,280,2012-12-24 08:56:00
2:56 AM,21.0,15.1,78,29.82,10.0,NW,5.8,-,N/A,,Mostly Cloudy,320,2012-12-24 09:56:00
3:56 AM,21.9,16.0,78,29.83,10.0,West,4.6,-,N/A,,Clear,270,2012-12-24 10:56:00
4:56 AM,19.9,14.0,78,29.86,10.0,NE,3.5,-,N/A,,Overcast,40,2012-12-24 11:56:00
5:56 AM,19.9,15.1,81,29.89,10.0,Calm,Calm,-,N/A,,Overcast,0,2012-12-24 12:56:00
6:56 AM,19.0,14.0,81,29.93,10.0,West,3.5,-,N/A,,Overcast,280,2012-12-24 13:56:00
7:56 AM,15.1,10.0,80,29.96,8.0,WSW,13.8,-,0.00,,Overcast,240,2012-12-24 14:56:00
8:56 AM,14.0,8.1,77,29.99,10.0,WSW,12.7,-,N/A,,Overcast,250,2012-12-24 15:56:00
9:56 AM,12.9,7.0,77,30.01,2.5,WSW,10.4,-,0.00,Snow,Light Snow,240,2012-12-24 16:56:00
10:04 AM,14.0,8.6,79,29.86,3.0,WSW,11.5,-,0.00,Snow,Light Snow,250,2012-12-24 17:04:00
10:23 AM,12.2,8.6,85,29.87,2.0,WSW,10.4,-,0.00,Snow,Light Snow,250,2012-12-24 17:23:00
10:28 AM,12.2,8.6,85,29.87,1.2,WSW,10.4,-,0.00,Snow,Light Snow,240,2012-12-24 17:28:00
10:38 AM,12.2,8.6,85,29.88,0.8,WSW,11.5,-,0.00,Snow,Light Snow,250,2012-12-24 17:38:00
10:56 AM,12.9,8.1,81,30.06,0.8,WSW,9.2,-,0.00,Snow,Light Snow,250,2012-12-24 17:56:00
11:30 AM,12.2,8.6,85,29.90,1.2,WSW,6.9,-,0.00,Snow,Light Snow,240,2012-12-24 18:30:00
11:56 AM,12.9,9.0,84,30.07,1.0,SW,8.1,-,0.00,Snow,Light Snow,230,2012-12-24 18:56:00
12:23 PM,14.0,8.6,79,29.91,1.0,WSW,11.5,-,0.00,Snow,Light Snow,250,2012-12-24 19:23:00
12:56 PM,12.9,9.0,84,30.10,0.8,West,10.4,-,0.00,Snow,Light Snow,260,2012-12-24 19:56:00
1:02 PM,12.2,8.6,85,29.93,1.0,West,9.2,-,0.00,Snow,Light Snow,280,2012-12-24 20:02:00
1:10 PM,12.2,8.6,85,29.93,1.2,NW,6.9,-,0.00,Snow,Light Snow,310,2012-12-24 20:10:00
1:21 PM,12.2,8.6,85,29.93,1.2,WNW,4.6,-,0.00,Snow,Light Snow,300,2012-12-24 20:21:00
1:39 PM,12.2,6.8,79,29.95,0.5,SW,9.2,-,0.00,Snow,Snow,230,2012-12-24 20:39:00
1:47 PM,10.4,6.8,85,29.95,0.5,SW,11.5,-,0.00,Snow,Snow,220,2012-12-24 20:47:00
1:56 PM,10.9,6.1,81,30.14,0.5,SW,11.5,-,0.00,Snow,Snow,230,2012-12-24 20:56:00
2:09 PM,10.4,5.0,79,29.96,0.8,SW,12.7,-,0.00,Snow,Light Snow,220,2012-12-24 21:09:00
2:20 PM,10.4,5.0,79,29.96,1.0,SW,10.4,-,0.00,Snow,Light Snow,220,2012-12-24 21:20:00
2:56 PM,9.0,3.9,80,30.19,1.0,WSW,9.2,-,0.00,Snow,Light Snow,240,2012-12-24 21:56:00
3:05 PM,8.6,5.0,85,29.99,0.8,WSW,8.1,-,0.00,Snow,Light Snow,250,2012-12-24 22:05:00
3:18 PM,8.6,3.2,79,30.00,1.0,WSW,6.9,-,0.00,Snow,Light Snow,240,2012-12-24 22:18:00
3:26 PM,8.6,5.0,85,30.01,0.8,SW,5.8,-,0.00,Snow,Light Snow,230,2012-12-24 22:26:00
3:41 PM,8.6,5.0,85,30.02,1.0,SW,3.5,-,0.00,Snow,Light Snow,220,2012-12-24 22:41:00
3:56 PM,9.0,3.9,80,30.22,1.2,SSW,3.5,-,0.00,Snow,Light Snow,210,2012-12-24 22:56:00
4:56 PM,8.1,3.0,80,30.27,1.2,SW,6.9,-,0.00,Snow,Light Snow,220,2012-12-24 23:56:00
5:02 PM,8.6,3.2,79,30.06,2.0,SW,5.8,-,0.00,Snow,Light Snow,230,2012-12-25 00:02:00
5:24 PM,8.6,3.2,79,30.07,1.5,WSW,6.9,-,0.00,Snow,Light Snow,240,2012-12-25 00:24:00
5:51 PM,6.8,1.4,79,30.09,2.5,WSW,6.9,-,0.00,Snow,Light Snow,240,2012-12-25 00:51:00
5:56 PM,7.0,1.9,80,30.30,2.5,WSW,8.1,-,0.00,Snow,Light Snow,250,2012-12-25 00:56:00
6:03 PM,6.8,1.4,79,30.09,3.0,WSW,8.1,-,0.00,Snow,Light Snow,240,2012-12-25 01:03:00
6:32 PM,6.8,1.4,79,30.11,2.0,WSW,8.1,-,0.00,Snow,Light Snow,240,2012-12-25 01:32:00
6:38 PM,6.8,1.4,79,30.11,1.8,WSW,5.8,-,0.00,Snow,Light Snow,240,2012-12-25 01:38:00
6:56 PM,7.0,1.9,80,30.34,1.8,WSW,5.8,-,0.00,Snow,Light Snow,240,2012-12-25 01:56:00
7:04 PM,6.8,1.4,79,30.12,2.0,WSW,5.8,-,0.00,Snow,Light Snow,240,2012-12-25 02:04:00
7:24 PM,6.8,1.4,79,30.13,2.5,SW,4.6,-,0.00,Snow,Light Snow,230,2012-12-25 02:24:00
7:39 PM,6.8,1.4,79,30.13,3.0,SW,4.6,-,0.00,Snow,Light Snow,220,2012-12-25 02:39:00
7:56 PM,6.1,1.0,80,30.36,3.0,SW,5.8,-,0.00,Snow,Light Snow,230,2012-12-25 02:56:00
8:52 PM,6.8,1.4,79,30.14,2.5,SW,4.6,-,0.00,Snow,Light Snow,230,2012-12-25 03:52:00
8:56 PM,6.1,1.0,80,30.38,2.5,SW,5.8,-,0.00,Snow,Light Snow,230,2012-12-25 03:56:00
9:18 PM,6.8,1.4,79,30.15,3.0,SW,4.6,-,0.00,,Haze,230,2012-12-25 04:18:00
9:56 PM,3.0,-2.0,80,30.42,9.0,WSW,6.9,-,0.00,,Scattered Clouds,240,2012-12-25 04:56:00
10:56 PM,3.0,-2.9,76,30.42,10.0,SSW,4.6,-,N/A,,Mostly Cloudy,210,2012-12-25 05:56:00
11:56 PM,1.0,-2.9,83,30.43,10.0,Calm,Calm,-,N/A,,Mostly Cloudy,0,2012-12-25 06:56:00